Location: Enikep?du
(16.5133°N, 80.7066°E)
Time: 18:40:01
(UTC+00:00)

Cosmos 2227 Rocket - Pass Details

Date: 20 January 2020
Orbit: 840 x 844 km, 71.0° (Epoch: 25 February)

Event Time Altitude Azimuth Distance (km) Brightness Sun altitude
Exits shadow 00:43:48 - 323° (NW) 3,199 4.7 -6.6°
Reaches altitude 10° 00:46:02 10° 313° (NW) 2,452 4.1 -6.1°
Maximum altitude 00:50:41 27° 257° (WSW) 1,558 3.2 -5.0°
Drops below altitude 10° 00:55:21 10° 201° (SSW) 2,450 4.6 -4.0°
Sets 00:58:08 0° 189° (S) 3,384 5.5 -3.4°
